Location: Unspecified
(51.0950°N, 12.9690°E)
Time: 17:17:48
(UTC+00:00)

Cosmos 1844 - Pass Details

Date: 28 October 2021
Orbit: 822 x 868 km, 70.9° (Epoch: 02 December)

Event Time Altitude Azimuth Distance (km) Brightness Sun altitude
Rises 17:15:56 0° 328° (NNW) 3,463 7.3 -14.1°
Reaches altitude 10° 17:18:25 10° 327° (NNW) 2,519 6.6 -14.5°
Maximum altitude 17:24:12 73° 244° (WSW) 902 4.0 -15.4°
Drops below altitude 10° 17:29:53 10° 161° (SSE) 2,479 6.0 -16.3°
Sets 17:32:19 0° 159° (SSE) 3,404 6.6 -16.7°
